This is the latest recevied weather packets stored in our database for station/object WY1B. If no packets are shown the sender has not sent any weather packets the latest 10 day(s).
| Time | Temp. | Humidity | Pressure | Rain* | Wind** | Luminosity | Snow |
|---|---|---|---|---|---|---|---|
| 1787769518 | 45° C | 16% | 1004.7 hPa | 0 mm | - | 923 W/m² | - |
| 1787769218 | 45° C | 16% | 1004.5 hPa | 0 mm | - | 915 W/m² | - |
| 1787768912 | 45° C | 16% | 1004.7 hPa | 0 mm | - | 908 W/m² | - |
| 1787768608 | 45.56° C | 16% | 1004.9 hPa | 0 mm | - | 902 W/m² | - |
| 1787768304 | 45.56° C | 16% | 1004.9 hPa | 0 mm | - | 897 W/m² | - |
| 1787768001 | 45° C | 17% | 1005 hPa | 0 mm | - | 890 W/m² | - |
| 1787767700 | 44.44° C | 17% | 1005.1 hPa | 0 mm | - | 870 W/m² | - |
| 1787767400 | 43.89° C | 18% | 1005.1 hPa | 0 mm | - | 867 W/m² | - |
| 1787767099 | 43.33° C | 18% | 1005 hPa | 0 mm | - | 861 W/m² | - |
| 1787766797 | 43.33° C | 18% | 1004.8 hPa | 0 mm | - | 852 W/m² | - |
| 1787766497 | 43.33° C | 18% | 1004.9 hPa | 0 mm | - | 845 W/m² | - |
| 1787766197 | 42.78° C | 19% | 1004.9 hPa | 0 mm | - | 835 W/m² | - |
| 1787765892 | 42.78° C | 21% | 1004.9 hPa | 0 mm | - | 694 W/m² | - |
| 1787765588 | 42.22° C | 20% | 1005 hPa | 0 mm | - | 630 W/m² | - |
| 1787765283 | 41.67° C | 20% | 1004.9 hPa | 0 mm | - | 796 W/m² | - |
| 1787764983 | 40.56° C | 21% | 1004.7 hPa | 0 mm | - | 781 W/m² | - |
| 1787764678 | 39.44° C | 24% | 1004.7 hPa | 0 mm | - | 768 W/m² | - |
| 1787764378 | 38.89° C | 23% | 1004.8 hPa | 0 mm | - | 751 W/m² | - |
| 1787764074 | 38.33° C | 24% | 1004.7 hPa | 0 mm | - | 376 W/m² | - |
| 1787763769 | 38.33° C | 24% | 1004.8 hPa | 0 mm | - | 99 W/m² | - |
| 1787763465 | 37.78° C | 24% | 1004.8 hPa | 0 mm | - | 84 W/m² | - |
| 1787763160 | 37.78° C | 24% | 1004.8 hPa | 0 mm | - | 78 W/m² | - |
| 1787762854 | 37.78° C | 24% | 1004.7 hPa | 0 mm | - | 75 W/m² | - |
| 1787762554 | 37.78° C | 23% | 1004.7 hPa | 0 mm | - | 74 W/m² | - |
| 1787762251 | 37.78° C | 25% | 1004.6 hPa | 0 mm | - | 78 W/m² | - |
* Rain latest hour (hover to see other rain measurements)
** Current wind speed in m/s (hover to see current wind gust speed)